Time,TemperatureF,DewpointF,PressureIn,WindDirection,WindDirectionDegrees,WindSpeedMPH,WindSpeedGustMPH,Humidity,HourlyPrecipIn,Conditions,Clouds,dailyrainin,SoftwareType,DateUTC
2013-01-14 00:00:00,59.0,58.4,29.88,ESE,108,0.0,0.0,98,0.08,,,0.00,Wunderground v.1.15,2013-01-14 05:00:00,
2013-01-14 00:03:00,59.0,58.4,29.88,ESE,123,0.0,0.0,98,0.16,,,0.01,Wunderground v.1.15,2013-01-14 05:03:00,
2013-01-14 00:04:00,59.0,58.4,29.88,SE,140,0.0,0.0,98,0.16,,,0.01,Wunderground v.1.15,2013-01-14 05:04:00,
2013-01-14 00:05:00,59.0,58.4,29.88,SE,140,0.0,0.0,98,0.13,,,0.01,Wunderground v.1.15,2013-01-14 05:05:00,
2013-01-14 00:10:00,59.0,58.4,29.88,SE,128,0.0,0.0,98,0.12,,,0.02,Wunderground v.1.15,2013-01-14 05:10:00,
2013-01-14 00:15:00,59.0,58.4,29.88,SSE,150,0.0,0.0,98,0.12,,,0.03,Wunderground v.1.15,2013-01-14 05:15:00,
2013-01-14 00:21:00,59.0,58.4,29.88,ESE,123,0.0,0.0,98,0.30,,,0.06,Wunderground v.1.15,2013-01-14 05:21:00,
2013-01-14 00:26:00,59.0,58.4,29.88,ESE,122,0.0,0.0,98,0.12,,,0.07,Wunderground v.1.15,2013-01-14 05:26:00,
2013-01-14 00:31:00,59.0,58.4,29.88,SE,138,0.0,0.0,98,0.25,,,0.09,Wunderground v.1.15,2013-01-14 05:31:00,
2013-01-14 00:36:00,59.0,58.4,29.88,SE,130,0.0,0.0,98,0.33,,,0.11,Wunderground v.1.15,2013-01-14 05:36:00,
2013-01-14 00:42:00,59.0,58.4,29.88,SE,144,0.0,0.0,98,0.67,,,0.15,Wunderground v.1.15,2013-01-14 05:42:00,
2013-01-14 00:47:00,59.0,58.4,29.88,SE,127,0.0,0.0,98,0.19,,,0.18,Wunderground v.1.15,2013-01-14 05:47:00,
2013-01-14 00:53:00,59.0,58.4,29.88,ESE,115,0.0,0.0,98,0.18,,,0.20,Wunderground v.1.15,2013-01-14 05:53:00,
2013-01-14 00:58:00,58.9,58.3,29.88,SE,131,0.0,0.0,98,0.45,,,0.22,Wunderground v.1.15,2013-01-14 05:58:00,
2013-01-14 01:03:00,58.9,58.3,29.88,ESE,121,0.0,0.0,98,0.40,,,0.24,Wunderground v.1.15,2013-01-14 06:03:00,
2013-01-14 01:08:00,58.9,58.3,29.88,SE,146,0.0,0.0,98,0.43,,,0.27,Wunderground v.1.15,2013-01-14 06:08:00,
2013-01-14 01:13:00,58.9,58.3,29.88,SE,128,0.0,0.0,98,0.41,,,0.29,Wunderground v.1.15,2013-01-14 06:13:00,
2013-01-14 01:18:00,58.9,58.3,29.88,SE,127,0.0,0.0,98,0.53,,,0.32,Wunderground v.1.15,2013-01-14 06:18:00,
2013-01-14 01:23:00,58.9,58.3,29.88,SE,127,0.0,0.0,98,0.36,,,0.35,Wunderground v.1.15,2013-01-14 06:23:00,
2013-01-14 01:28:00,58.9,58.3,29.88,ESE,123,0.0,0.0,98,0.40,,,0.37,Wunderground v.1.15,2013-01-14 06:28:00,
2013-01-14 01:34:00,58.8,58.2,29.88,SE,128,0.0,0.0,98,0.09,,,0.38,Wunderground v.1.15,2013-01-14 06:34:00,
2013-01-14 01:39:00,58.8,58.2,29.88,SE,136,0.0,0.0,98,0.09,,,0.38,Wunderground v.1.15,2013-01-14 06:39:00,
2013-01-14 01:44:00,58.7,58.1,29.87,SE,140,0.0,0.0,98,0.06,,,0.39,Wunderground v.1.15,2013-01-14 06:44:00,
2013-01-14 01:49:00,58.7,58.1,29.87,ESE,123,0.0,0.0,98,0.06,,,0.39,Wunderground v.1.15,2013-01-14 06:49:00,
2013-01-14 01:54:00,58.9,58.3,29.87,SE,137,0.0,0.0,98,0.05,,,0.39,Wunderground v.1.15,2013-01-14 06:54:00,
2013-01-14 01:59:00,58.8,58.2,29.88,SSE,151,0.0,0.0,98,0.04,,,0.39,Wunderground v.1.15,2013-01-14 06:59:00,
2013-01-14 02:05:00,58.8,58.2,29.88,SSE,156,0.0,0.0,98,0.00,,,0.39,Wunderground v.1.15,2013-01-14 07:05:00,
2013-01-14 02:10:00,58.8,58.2,29.88,ESE,109,0.0,0.0,98,0.00,,,0.39,Wunderground v.1.15,2013-01-14 07:10:00,
2013-01-14 02:15:00,58.8,58.2,29.88,SE,141,0.0,0.0,98,0.00,,,0.39,Wunderground v.1.15,2013-01-14 07:15:00,
2013-01-14 02:20:00,58.9,58.3,29.88,ESE,120,0.0,0.0,98,0.00,,,0.39,Wunderground v.1.15,2013-01-14 07:20:00,
2013-01-14 02:26:00,58.9,58.3,29.88,ESE,123,0.0,0.0,98,0.00,,,0.39,Wunderground v.1.15,2013-01-14 07:26:00,
2013-01-14 02:31:00,58.9,58.3,29.87,SE,129,0.0,0.0,98,0.00,,,0.39,Wunderground v.1.15,2013-01-14 07:31:00,
2013-01-14 02:36:00,58.9,58.3,29.87,SE,134,0.0,0.0,98,0.00,,,0.39,Wunderground v.1.15,2013-01-14 07:36:00,
2013-01-14 02:42:00,58.9,58.3,29.88,ESE,119,0.0,0.0,98,0.00,,,0.39,Wunderground v.1.15,2013-01-14 07:42:00,
2013-01-14 02:47:00,58.9,58.3,29.88,SE,138,0.0,0.0,98,0.00,,,0.39,Wunderground v.1.15,2013-01-14 07:47:00,
2013-01-14 02:52:00,58.9,58.3,29.88,ESE,115,0.0,0.0,98,0.00,,,0.39,Wunderground v.1.15,2013-01-14 07:52:00,
2013-01-14 02:57:00,58.8,58.2,29.88,ESE,116,0.0,0.0,98,0.00,,,0.39,Wunderground v.1.15,2013-01-14 07:57:00,
2013-01-14 03:02:00,58.8,58.2,29.88,ESE,122,0.0,0.0,98,0.00,,,0.39,Wunderground v.1.15,2013-01-14 08:02:00,
2013-01-14 03:07:00,58.8,58.2,29.88,SSE,162,0.0,0.0,98,0.00,,,0.40,Wunderground v.1.15,2013-01-14 08:07:00,
2013-01-14 03:13:00,58.8,58.2,29.88,SSE,165,0.0,0.0,98,0.00,,,0.40,Wunderground v.1.15,2013-01-14 08:13:00,
2013-01-14 03:19:00,58.8,58.2,29.88,ESE,104,0.0,0.0,98,0.00,,,0.40,Wunderground v.1.15,2013-01-14 08:19:00,
2013-01-14 03:24:00,58.7,58.1,29.88,ESE,113,0.0,0.0,98,0.00,,,0.41,Wunderground v.1.15,2013-01-14 08:24:00,
2013-01-14 03:29:00,58.7,58.1,29.87,SE,127,0.0,0.0,98,0.00,,,0.41,Wunderground v.1.15,2013-01-14 08:29:00,
2013-01-14 03:34:00,58.8,58.2,29.87,SE,135,0.0,0.0,98,0.00,,,0.41,Wunderground v.1.15,2013-01-14 08:34:00,
2013-01-14 03:39:00,58.8,58.2,29.87,ESE,103,0.0,0.0,98,0.00,,,0.41,Wunderground v.1.15,2013-01-14 08:39:00,
2013-01-14 03:44:00,58.8,58.2,29.87,ESE,121,0.0,0.0,98,0.00,,,0.41,Wunderground v.1.15,2013-01-14 08:44:00,
2013-01-14 03:49:00,58.8,58.2,29.87,SE,125,0.0,0.0,98,0.00,,,0.41,Wunderground v.1.15,2013-01-14 08:49:00,
2013-01-14 03:54:00,58.8,58.2,29.87,SE,124,0.0,0.0,98,0.00,,,0.41,Wunderground v.1.15,2013-01-14 08:54:00,
2013-01-14 04:00:00,58.8,58.2,29.87,SE,132,0.0,0.0,98,0.00,,,0.41,Wunderground v.1.15,2013-01-14 09:00:00,
2013-01-14 04:05:00,58.8,58.2,29.87,SE,127,0.0,0.0,98,0.00,,,0.41,Wunderground v.1.15,2013-01-14 09:05:00,
2013-01-14 04:10:00,58.7,58.1,29.87,ESE,121,0.0,0.0,98,0.00,,,0.41,Wunderground v.1.15,2013-01-14 09:10:00,
2013-01-14 04:15:00,58.7,58.1,29.86,SE,126,0.0,0.0,98,0.00,,,0.41,Wunderground v.1.15,2013-01-14 09:15:00,
2013-01-14 04:20:00,58.7,58.1,29.86,ESE,121,0.0,0.0,98,0.00,,,0.41,Wunderground v.1.15,2013-01-14 09:20:00,
2013-01-14 04:25:00,58.7,58.1,29.86,East,86,0.0,0.0,98,0.00,,,0.41,Wunderground v.1.15,2013-01-14 09:25:00,
2013-01-14 04:30:00,58.7,58.1,29.86,SE,132,0.0,0.0,98,0.00,,,0.41,Wunderground v.1.15,2013-01-14 09:30:00,
2013-01-14 04:35:00,58.7,58.1,29.86,SE,139,0.0,0.0,98,0.00,,,0.41,Wunderground v.1.15,2013-01-14 09:35:00,
2013-01-14 04:41:00,58.7,58.1,29.86,ESE,123,0.0,0.0,98,0.00,,,0.42,Wunderground v.1.15,2013-01-14 09:41:00,
2013-01-14 04:47:00,58.7,58.1,29.85,SE,124,0.0,0.0,98,0.00,,,0.42,Wunderground v.1.15,2013-01-14 09:47:00,
2013-01-14 04:52:00,58.7,58.1,29.85,SE,131,0.0,0.0,98,0.00,,,0.42,Wunderground v.1.15,2013-01-14 09:52:00,
2013-01-14 04:57:00,58.6,58.0,29.85,ESE,102,0.0,0.0,98,0.00,,,0.42,Wunderground v.1.15,2013-01-14 09:57:00,
2013-01-14 05:03:00,58.6,58.0,29.85,ESE,116,0.0,0.0,98,0.00,,,0.42,Wunderground v.1.15,2013-01-14 10:03:00,
2013-01-14 05:08:00,58.6,58.0,29.85,SE,136,0.0,0.0,98,0.00,,,0.42,Wunderground v.1.15,2013-01-14 10:08:00,
2013-01-14 05:13:00,58.6,58.0,29.85,SE,134,0.0,0.0,98,0.00,,,0.42,Wunderground v.1.15,2013-01-14 10:13:00,
2013-01-14 05:18:00,58.6,58.0,29.85,ESE,121,0.0,0.0,98,0.00,,,0.42,Wunderground v.1.15,2013-01-14 10:18:00,
2013-01-14 05:23:00,58.6,58.0,29.85,SE,138,0.0,0.0,98,0.00,,,0.42,Wunderground v.1.15,2013-01-14 10:23:00,
2013-01-14 05:28:00,58.6,58.0,29.85,ESE,115,0.0,0.0,98,0.00,,,0.43,Wunderground v.1.15,2013-01-14 10:28:00,
2013-01-14 05:34:00,58.6,58.0,29.85,ESE,121,0.0,0.0,98,0.00,,,0.43,Wunderground v.1.15,2013-01-14 10:34:00,
2013-01-14 05:39:00,58.6,58.0,29.85,ESE,119,0.0,0.0,98,0.00,,,0.43,Wunderground v.1.15,2013-01-14 10:39:00,
2013-01-14 05:44:00,58.6,58.0,29.86,SE,136,0.0,0.0,98,0.00,,,0.43,Wunderground v.1.15,2013-01-14 10:44:00,
2013-01-14 05:49:00,58.6,58.0,29.86,ESE,123,0.0,0.0,98,0.00,,,0.43,Wunderground v.1.15,2013-01-14 10:49:00,
2013-01-14 05:54:00,58.6,58.0,29.86,SE,131,0.0,0.0,98,0.00,,,0.43,Wunderground v.1.15,2013-01-14 10:54:00,
2013-01-14 05:59:00,58.6,58.0,29.86,SE,127,0.0,0.0,98,0.00,,,0.43,Wunderground v.1.15,2013-01-14 10:59:00,
2013-01-14 06:05:00,58.6,58.0,29.86,SE,129,0.0,0.0,98,0.00,,,0.43,Wunderground v.1.15,2013-01-14 11:05:00,
2013-01-14 06:10:00,58.6,58.0,29.86,ESE,111,0.0,0.0,98,0.00,,,0.44,Wunderground v.1.15,2013-01-14 11:10:00,
2013-01-14 06:15:00,58.6,58.0,29.86,SSE,149,0.0,0.0,98,0.12,,,0.45,Wunderground v.1.15,2013-01-14 11:15:00,
2013-01-14 06:21:00,58.6,58.0,29.86,ESE,122,0.0,0.0,98,0.09,,,0.46,Wunderground v.1.15,2013-01-14 11:21:00,
2013-01-14 06:26:00,58.6,58.0,29.86,ESE,113,0.0,0.0,98,0.07,,,0.47,Wunderground v.1.15,2013-01-14 11:26:00,
2013-01-14 06:31:00,58.6,58.0,29.86,ESE,120,0.0,0.0,98,0.07,,,0.47,Wunderground v.1.15,2013-01-14 11:31:00,
2013-01-14 06:36:00,58.6,58.0,29.86,ESE,116,0.0,0.0,98,0.06,,,0.47,Wunderground v.1.15,2013-01-14 11:36:00,
2013-01-14 06:41:00,58.6,58.0,29.86,SE,125,0.0,0.0,98,0.04,,,0.47,Wunderground v.1.15,2013-01-14 11:41:00,
2013-01-14 06:46:00,58.6,58.0,29.88,SE,136,0.0,0.0,98,0.00,,,0.47,Wunderground v.1.15,2013-01-14 11:46:00,
2013-01-14 06:51:00,58.6,58.0,29.88,SE,126,0.0,0.0,98,0.00,,,0.47,Wunderground v.1.15,2013-01-14 11:51:00,
2013-01-14 06:57:00,58.6,58.0,29.88,SE,133,0.0,0.0,98,0.00,,,0.47,Wunderground v.1.15,2013-01-14 11:57:00,
2013-01-14 07:02:00,58.6,58.0,29.88,SE,132,0.0,0.0,98,0.00,,,0.47,Wunderground v.1.15,2013-01-14 12:02:00,
2013-01-14 07:07:00,58.7,58.1,29.88,ESE,119,0.0,0.0,98,0.00,,,0.47,Wunderground v.1.15,2013-01-14 12:07:00,
2013-01-14 07:13:00,58.7,58.1,29.88,SE,130,0.0,0.0,98,0.00,,,0.47,Wunderground v.1.15,2013-01-14 12:13:00,
2013-01-14 07:18:00,58.7,58.1,29.88,ESE,117,0.0,0.0,98,0.00,,,0.47,Wunderground v.1.15,2013-01-14 12:18:00,
2013-01-14 07:23:00,58.7,58.1,29.88,ESE,117,0.0,0.0,98,0.00,,,0.47,Wunderground v.1.15,2013-01-14 12:23:00,
2013-01-14 07:28:00,58.7,58.1,29.89,SE,132,0.0,0.0,98,0.00,,,0.47,Wunderground v.1.15,2013-01-14 12:28:00,
2013-01-14 07:33:00,58.7,58.1,29.89,ESE,114,0.0,0.0,98,0.00,,,0.48,Wunderground v.1.15,2013-01-14 12:33:00,
2013-01-14 07:39:00,58.7,58.1,29.89,SE,134,0.0,0.0,98,0.13,,,0.49,Wunderground v.1.15,2013-01-14 12:39:00,
2013-01-14 07:44:00,58.7,58.1,29.89,SE,136,0.0,0.0,98,0.06,,,0.49,Wunderground v.1.15,2013-01-14 12:44:00,
2013-01-14 07:50:00,58.8,58.2,29.89,SSE,153,0.0,0.0,98,0.26,,,0.51,Wunderground v.1.15,2013-01-14 12:50:00,
2013-01-14 07:55:00,58.8,58.2,29.89,ESE,123,0.0,0.0,98,0.35,,,0.56,Wunderground v.1.15,2013-01-14 12:55:00,
2013-01-14 08:00:00,58.7,58.1,29.88,SE,127,0.0,0.0,98,0.19,,,0.58,Wunderground v.1.15,2013-01-14 13:00:00,
2013-01-14 08:05:00,58.8,58.2,29.88,SE,144,0.0,0.0,98,0.18,,,0.59,Wunderground v.1.15,2013-01-14 13:05:00,
2013-01-14 08:10:00,58.9,58.3,29.88,SE,136,0.0,0.0,98,0.07,,,0.59,Wunderground v.1.15,2013-01-14 13:10:00,
2013-01-14 08:15:00,58.9,58.3,29.89,SE,127,0.0,0.0,98,0.30,,,0.62,Wunderground v.1.15,2013-01-14 13:15:00,
2013-01-14 08:20:00,58.9,58.3,29.89,ESE,118,0.0,0.0,98,0.10,,,0.62,Wunderground v.1.15,2013-01-14 13:20:00,
2013-01-14 08:26:00,58.9,58.3,29.89,SE,138,0.0,0.0,98,0.07,,,0.63,Wunderground v.1.15,2013-01-14 13:26:00,
2013-01-14 08:32:00,58.9,58.3,29.90,SE,128,0.0,0.0,98,0.17,,,0.65,Wunderground v.1.15,2013-01-14 13:32:00,
2013-01-14 08:37:00,58.9,58.3,29.90,SSE,155,0.0,0.0,98,0.20,,,0.67,Wunderground v.1.15,2013-01-14 13:37:00,
2013-01-14 08:42:00,58.9,58.3,29.90,ESE,117,0.0,0.0,98,0.11,,,0.68,Wunderground v.1.15,2013-01-14 13:42:00,
2013-01-14 08:47:00,59.1,58.5,29.90,SE,138,0.0,0.0,98,0.23,,,0.70,Wunderground v.1.15,2013-01-14 13:47:00,
2013-01-14 08:52:00,59.2,58.6,29.90,SSE,147,0.0,0.0,98,0.12,,,0.71,Wunderground v.1.15,2013-01-14 13:52:00,
2013-01-14 08:57:00,59.2,58.6,29.90,SE,128,0.0,0.0,98,0.06,,,0.72,Wunderground v.1.15,2013-01-14 13:57:00,
2013-01-14 09:02:00,59.2,58.6,29.90,ESE,120,0.0,0.0,98,0.06,,,0.72,Wunderground v.1.15,2013-01-14 14:02:00,
2013-01-14 09:07:00,59.3,58.7,29.90,SE,137,0.0,0.0,98,0.07,,,0.73,Wunderground v.1.15,2013-01-14 14:07:00,
2013-01-14 09:12:00,59.3,58.7,29.91,SE,126,0.0,0.0,98,0.07,,,0.73,Wunderground v.1.15,2013-01-14 14:12:00,
2013-01-14 09:17:00,59.3,58.7,29.91,SSE,153,0.0,0.0,98,0.05,,,0.74,Wunderground v.1.15,2013-01-14 14:17:00,
2013-01-14 09:22:00,59.4,58.8,29.91,SE,125,0.0,0.0,98,0.11,,,0.75,Wunderground v.1.15,2013-01-14 14:22:00,
2013-01-14 09:27:00,59.3,58.7,29.91,ESE,121,0.0,0.0,98,0.11,,,0.75,Wunderground v.1.15,2013-01-14 14:27:00,
2013-01-14 09:32:00,59.3,58.7,29.91,SE,144,0.0,0.0,98,0.06,,,0.75,Wunderground v.1.15,2013-01-14 14:32:00,
2013-01-14 09:37:00,59.4,58.8,29.91,SE,128,0.0,0.0,98,0.05,,,0.76,Wunderground v.1.15,2013-01-14 14:37:00,
2013-01-14 09:42:00,59.5,58.9,29.90,SE,131,0.0,0.0,98,0.14,,,0.77,Wunderground v.1.15,2013-01-14 14:42:00,
2013-01-14 09:47:00,59.6,59.0,29.90,SE,136,0.0,0.0,98,0.07,,,0.77,Wunderground v.1.15,2013-01-14 14:47:00,
2013-01-14 09:52:00,59.7,59.1,29.90,SE,140,0.0,0.0,98,0.04,,,0.77,Wunderground v.1.15,2013-01-14 14:52:00,
2013-01-14 09:57:00,59.8,59.2,29.91,ESE,109,0.0,0.0,98,0.00,,,0.77,Wunderground v.1.15,2013-01-14 14:57:00,
2013-01-14 10:02:00,59.8,59.2,29.91,ESE,108,0.0,0.0,98,0.00,,,0.77,Wunderground v.1.15,2013-01-14 15:02:00,
2013-01-14 10:08:00,59.9,59.3,29.91,SE,126,0.0,0.0,98,0.00,,,0.78,Wunderground v.1.15,2013-01-14 15:08:00,
2013-01-14 10:13:00,60.0,59.4,29.90,ESE,122,0.0,0.0,98,0.00,,,0.78,Wunderground v.1.15,2013-01-14 15:13:00,
2013-01-14 10:18:00,60.0,59.4,29.90,ESE,123,0.0,0.0,98,0.08,,,0.79,Wunderground v.1.15,2013-01-14 15:18:00,
2013-01-14 10:24:00,60.1,59.5,29.90,ESE,117,0.0,0.0,98,0.06,,,0.79,Wunderground v.1.15,2013-01-14 15:24:00,
2013-01-14 10:29:00,60.2,59.6,29.91,SE,131,0.0,0.0,98,0.04,,,0.79,Wunderground v.1.15,2013-01-14 15:29:00,
2013-01-14 10:34:00,60.4,60.1,29.91,SE,138,0.0,0.0,99,0.04,,,0.80,Wunderground v.1.15,2013-01-14 15:34:00,
2013-01-14 10:39:00,60.6,60.3,29.91,ESE,123,0.0,0.0,99,0.12,,,0.81,Wunderground v.1.15,2013-01-14 15:39:00,
2013-01-14 10:44:00,60.7,60.4,29.90,SE,126,0.0,0.0,99,0.06,,,0.81,Wunderground v.1.15,2013-01-14 15:44:00,
2013-01-14 10:50:00,60.9,60.3,29.90,SE,130,0.0,0.0,98,0.04,,,0.81,Wunderground v.1.15,2013-01-14 15:50:00,
2013-01-14 10:55:00,61.0,60.4,29.90,SE,142,0.0,0.0,98,0.00,,,0.81,Wunderground v.1.15,2013-01-14 15:55:00,
2013-01-14 11:00:00,61.1,60.5,29.90,SSE,157,0.0,0.0,98,0.00,,,0.81,Wunderground v.1.15,2013-01-14 16:00:00,
2013-01-14 11:06:00,61.2,60.6,29.90,SSE,154,0.0,0.0,98,0.00,,,0.81,Wunderground v.1.15,2013-01-14 16:06:00,
2013-01-14 11:11:00,61.1,60.5,29.90,SE,132,0.0,0.0,98,0.00,,,0.81,Wunderground v.1.15,2013-01-14 16:11:00,
2013-01-14 11:16:00,61.1,60.5,29.90,ESE,123,0.0,0.0,98,0.00,,,0.82,Wunderground v.1.15,2013-01-14 16:16:00,
2013-01-14 11:21:00,61.1,60.5,29.90,SE,128,0.0,0.0,98,0.00,,,0.82,Wunderground v.1.15,2013-01-14 16:21:00,
2013-01-14 11:26:00,61.1,60.5,29.90,SE,131,0.0,0.0,98,0.06,,,0.83,Wunderground v.1.15,2013-01-14 16:26:00,
2013-01-14 11:31:00,61.1,60.5,29.89,SSE,148,0.0,0.0,98,0.06,,,0.83,Wunderground v.1.15,2013-01-14 16:31:00,
2013-01-14 11:36:00,61.2,60.6,29.89,ESE,123,0.0,0.0,98,0.05,,,0.83,Wunderground v.1.15,2013-01-14 16:36:00,
2013-01-14 11:41:00,61.1,60.5,29.89,SE,136,0.0,0.0,98,0.00,,,0.83,Wunderground v.1.15,2013-01-14 16:41:00,
2013-01-14 11:46:00,61.2,60.6,29.88,SSE,148,0.0,0.0,98,0.00,,,0.83,Wunderground v.1.15,2013-01-14 16:46:00,
2013-01-14 11:51:00,61.3,60.4,29.88,SE,142,0.0,0.0,97,0.00,,,0.83,Wunderground v.1.15,2013-01-14 16:51:00,
2013-01-14 11:57:00,61.2,60.3,29.87,ESE,110,0.0,0.0,97,0.32,,,0.85,Wunderground v.1.15,2013-01-14 16:57:00,
2013-01-14 12:02:00,61.1,60.5,29.87,SE,141,0.0,0.0,98,0.49,,,0.87,Wunderground v.1.15,2013-01-14 17:02:00,
2013-01-14 12:07:00,60.9,60.3,29.87,SE,130,0.0,0.0,98,0.56,,,0.91,Wunderground v.1.15,2013-01-14 17:07:00,
2013-01-14 12:12:00,60.8,60.2,29.86,ESE,117,0.0,0.0,98,0.24,,,0.94,Wunderground v.1.15,2013-01-14 17:12:00,
2013-01-14 12:17:00,60.7,60.1,29.86,ESE,119,0.0,0.0,98,0.51,,,0.97,Wunderground v.1.15,2013-01-14 17:17:00,
2013-01-14 12:22:00,60.7,60.1,29.86,ESE,115,0.0,0.0,98,0.38,,,1.01,Wunderground v.1.15,2013-01-14 17:22:00,
2013-01-14 12:27:00,60.6,60.0,29.87,ESE,121,0.0,0.0,98,0.51,,,1.05,Wunderground v.1.15,2013-01-14 17:27:00,
2013-01-14 12:32:00,60.6,60.0,29.87,SE,146,0.0,0.0,98,0.49,,,1.09,Wunderground v.1.15,2013-01-14 17:32:00,
2013-01-14 12:37:00,60.6,60.0,29.87,SSE,148,0.0,0.0,98,0.29,,,1.12,Wunderground v.1.15,2013-01-14 17:37:00,
2013-01-14 12:42:00,60.6,60.0,29.86,SE,132,0.0,0.0,98,0.30,,,1.14,Wunderground v.1.15,2013-01-14 17:42:00,
2013-01-14 12:48:00,60.6,60.3,29.86,ESE,112,0.0,0.0,99,0.26,,,1.17,Wunderground v.1.15,2013-01-14 17:48:00,
2013-01-14 12:53:00,60.6,60.3,29.86,SE,131,0.0,0.0,99,0.30,,,1.19,Wunderground v.1.15,2013-01-14 17:53:00,
2013-01-14 12:58:00,60.6,60.3,29.86,SE,126,0.0,0.0,99,0.26,,,1.21,Wunderground v.1.15,2013-01-14 17:58:00,
2013-01-14 13:03:00,60.5,60.2,29.86,SE,129,0.0,0.0,99,0.08,,,1.21,Wunderground v.1.15,2013-01-14 18:03:00,
2013-01-14 13:08:00,60.5,60.2,29.86,ESE,119,0.0,0.0,99,0.08,,,1.22,Wunderground v.1.15,2013-01-14 18:08:00,
2013-01-14 13:13:00,60.5,60.2,29.85,ESE,119,0.0,0.0,99,0.09,,,1.23,Wunderground v.1.15,2013-01-14 18:13:00,
2013-01-14 13:18:00,60.5,60.2,29.85,ESE,114,0.0,0.0,99,0.41,,,1.25,Wunderground v.1.15,2013-01-14 18:18:00,
2013-01-14 13:23:00,60.4,60.1,29.85,ESE,121,0.0,0.0,99,0.46,,,1.26,Wunderground v.1.15,2013-01-14 18:23:00,
2013-01-14 13:28:00,60.4,60.1,29.85,SE,133,0.0,0.0,99,0.16,,,1.28,Wunderground v.1.15,2013-01-14 18:28:00,
2013-01-14 13:33:00,60.4,60.1,29.85,ESE,123,0.0,0.0,99,0.15,,,1.30,Wunderground v.1.15,2013-01-14 18:33:00,
2013-01-14 13:38:00,60.6,60.3,29.85,SSE,151,0.0,0.0,99,0.15,,,1.31,Wunderground v.1.15,2013-01-14 18:38:00,
2013-01-14 13:44:00,60.9,60.3,29.85,ESE,122,0.0,0.0,98,0.16,,,1.33,Wunderground v.1.15,2013-01-14 18:44:00,
2013-01-14 13:49:00,61.0,60.4,29.85,SE,143,0.0,0.0,98,0.13,,,1.34,Wunderground v.1.15,2013-01-14 18:49:00,
2013-01-14 13:54:00,60.9,60.3,29.85,SSE,153,0.0,0.0,98,0.09,,,1.35,Wunderground v.1.15,2013-01-14 18:54:00,
2013-01-14 13:59:00,61.1,60.2,29.85,SE,134,0.0,0.0,97,0.07,,,1.35,Wunderground v.1.15,2013-01-14 18:59:00,
2013-01-14 14:04:00,61.0,60.1,29.85,SSE,157,0.0,0.0,97,0.05,,,1.35,Wunderground v.1.15,2013-01-14 19:04:00,
2013-01-14 14:09:00,60.9,60.0,29.85,SE,133,0.0,0.0,97,0.00,,,1.35,Wunderground v.1.15,2013-01-14 19:09:00,
2013-01-14 14:14:00,60.9,60.0,29.85,SSE,149,0.0,0.0,97,0.00,,,1.35,Wunderground v.1.15,2013-01-14 19:14:00,
2013-01-14 14:20:00,61.1,59.7,29.85,SSE,155,0.0,0.0,95,0.00,,,1.35,Wunderground v.1.15,2013-01-14 19:20:00,
2013-01-14 14:25:00,61.1,60.0,29.85,SSE,152,0.0,0.0,96,0.00,,,1.35,Wunderground v.1.15,2013-01-14 19:25:00,
2013-01-14 14:30:00,60.8,59.7,29.86,SE,127,0.0,0.0,96,0.00,,,1.36,Wunderground v.1.15,2013-01-14 19:30:00,
2013-01-14 14:36:00,60.8,59.7,29.86,SE,140,0.0,0.0,96,0.11,,,1.37,Wunderground v.1.15,2013-01-14 19:36:00,
2013-01-14 14:41:00,60.6,59.7,29.86,SSE,153,0.0,0.0,97,0.06,,,1.37,Wunderground v.1.15,2013-01-14 19:41:00,
2013-01-14 14:46:00,60.7,59.6,29.86,SE,125,0.0,0.0,96,0.04,,,1.37,Wunderground v.1.15,2013-01-14 19:46:00,
2013-01-14 14:51:00,60.9,59.5,29.86,SSE,155,0.0,0.0,95,0.00,,,1.37,Wunderground v.1.15,2013-01-14 19:51:00,
2013-01-14 14:56:00,60.7,59.3,29.86,SE,138,0.0,0.0,95,0.00,,,1.37,Wunderground v.1.15,2013-01-14 19:56:00,
2013-01-14 15:01:00,60.8,59.4,29.87,SSE,157,0.0,0.0,95,0.00,,,1.37,Wunderground v.1.15,2013-01-14 20:01:00,
2013-01-14 15:06:00,61.0,59.6,29.87,SSE,162,0.0,0.0,95,0.00,,,1.37,Wunderground v.1.15,2013-01-14 20:06:00,
2013-01-14 15:11:00,60.9,59.5,29.87,SE,133,0.0,0.0,95,0.00,,,1.37,Wunderground v.1.15,2013-01-14 20:11:00,
2013-01-14 15:16:00,60.9,59.5,29.87,SE,135,0.0,0.0,95,0.00,,,1.37,Wunderground v.1.15,2013-01-14 20:16:00,
2013-01-14 15:21:00,60.8,59.4,29.87,SE,144,0.0,0.0,95,0.00,,,1.37,Wunderground v.1.15,2013-01-14 20:21:00,
2013-01-14 15:26:00,61.0,59.3,29.87,SSE,148,0.0,0.0,94,0.00,,,1.37,Wunderground v.1.15,2013-01-14 20:26:00,
2013-01-14 15:31:00,61.2,59.2,29.88,SSE,159,0.0,0.0,93,0.00,,,1.37,Wunderground v.1.15,2013-01-14 20:31:00,
2013-01-14 15:36:00,61.3,59.3,29.88,SSE,151,0.0,0.0,93,0.00,,,1.37,Wunderground v.1.15,2013-01-14 20:36:00,
2013-01-14 15:41:00,60.9,59.5,29.88,SE,146,0.0,0.0,95,0.00,,,1.38,Wunderground v.1.15,2013-01-14 20:41:00,
2013-01-14 15:46:00,60.7,59.0,29.88,ESE,120,0.0,0.0,94,0.15,,,1.40,Wunderground v.1.15,2013-01-14 20:46:00,
2013-01-14 15:51:00,60.5,59.1,29.88,SSE,155,0.0,0.0,95,0.19,,,1.41,Wunderground v.1.15,2013-01-14 20:51:00,
2013-01-14 15:56:00,60.5,59.1,29.88,ESE,117,0.0,0.0,95,0.07,,,1.41,Wunderground v.1.15,2013-01-14 20:56:00,
2013-01-14 16:01:00,60.3,59.2,29.88,SE,128,0.0,0.0,96,0.05,,,1.42,Wunderground v.1.15,2013-01-14 21:01:00,
2013-01-14 16:06:00,60.4,59.0,29.88,ESE,107,0.0,0.0,95,0.09,,,1.43,Wunderground v.1.15,2013-01-14 21:06:00,
2013-01-14 16:11:00,60.5,58.8,29.88,ESE,118,0.0,0.0,94,0.09,,,1.43,Wunderground v.1.15,2013-01-14 21:11:00,
2013-01-14 16:17:00,60.7,58.7,29.89,SE,132,0.0,0.0,93,0.05,,,1.43,Wunderground v.1.15,2013-01-14 21:17:00,
2013-01-14 16:22:00,60.7,59.0,29.89,ESE,117,0.0,0.0,94,0.65,,,1.47,Wunderground v.1.15,2013-01-14 21:22:00,
2013-01-14 16:27:00,60.3,58.6,29.89,SE,138,0.0,0.0,94,0.50,,,1.49,Wunderground v.1.15,2013-01-14 21:27:00,
2013-01-14 16:32:00,60.4,58.7,29.89,SE,143,0.0,0.0,94,0.16,,,1.50,Wunderground v.1.15,2013-01-14 21:32:00,
2013-01-14 16:37:00,60.3,58.9,29.89,SE,140,0.0,0.0,95,0.14,,,1.51,Wunderground v.1.15,2013-01-14 21:37:00,
2013-01-14 16:42:00,60.1,59.0,29.89,SSE,157,0.0,0.0,96,0.06,,,1.51,Wunderground v.1.15,2013-01-14 21:42:00,
2013-01-14 16:48:00,60.6,58.6,29.89,ESE,115,0.0,0.0,93,0.04,,,1.51,Wunderground v.1.15,2013-01-14 21:48:00,
2013-01-14 16:53:00,61.0,58.7,29.89,ESE,110,0.0,0.0,92,0.00,,,1.51,Wunderground v.1.15,2013-01-14 21:53:00,
2013-01-14 16:58:00,60.5,58.8,29.90,ESE,119,0.0,0.0,94,0.00,,,1.51,Wunderground v.1.15,2013-01-14 21:58:00,
2013-01-14 17:03:00,60.2,58.8,29.90,SE,129,0.0,0.0,95,0.00,,,1.51,Wunderground v.1.15,2013-01-14 22:03:00,
2013-01-14 17:08:00,60.2,58.8,29.90,SE,134,0.0,0.0,95,0.00,,,1.51,Wunderground v.1.15,2013-01-14 22:08:00,
2013-01-14 17:13:00,60.2,58.8,29.90,SE,136,0.0,0.0,95,0.00,,,1.52,Wunderground v.1.15,2013-01-14 22:13:00,
2013-01-14 17:18:00,60.0,58.9,29.90,ESE,110,0.0,0.0,96,0.08,,,1.53,Wunderground v.1.15,2013-01-14 22:18:00,
2013-01-14 17:24:00,59.7,58.6,29.90,SE,136,0.0,0.0,96,0.08,,,1.53,Wunderground v.1.15,2013-01-14 22:24:00,
2013-01-14 17:29:00,59.7,58.6,29.90,SE,135,0.0,0.0,96,0.05,,,1.53,Wunderground v.1.15,2013-01-14 22:29:00,
2013-01-14 17:34:00,60.2,58.8,29.90,SE,140,0.0,0.0,95,0.04,,,1.53,Wunderground v.1.15,2013-01-14 22:34:00,
2013-01-14 17:40:00,60.4,58.7,29.90,SSE,155,0.0,0.0,94,0.00,,,1.54,Wunderground v.1.15,2013-01-14 22:40:00,
2013-01-14 17:45:00,60.5,58.8,29.92,SE,130,0.0,0.0,94,0.00,,,1.54,Wunderground v.1.15,2013-01-14 22:45:00,
2013-01-14 17:50:00,60.4,59.0,29.92,ESE,122,0.0,0.0,95,0.00,,,1.54,Wunderground v.1.15,2013-01-14 22:50:00,
2013-01-14 17:55:00,60.2,58.8,29.92,ESE,117,0.0,0.0,95,0.05,,,1.55,Wunderground v.1.15,2013-01-14 22:55:00,
2013-01-14 18:00:00,60.3,58.9,29.91,SSE,163,0.0,0.0,95,0.05,,,1.55,Wunderground v.1.15,2013-01-14 23:00:00,
2013-01-14 18:05:00,60.2,58.8,29.91,SE,124,0.0,0.0,95,0.04,,,1.55,Wunderground v.1.15,2013-01-14 23:05:00,
2013-01-14 18:11:00,60.4,59.0,29.91,SE,142,0.0,0.0,95,0.00,,,1.56,Wunderground v.1.15,2013-01-14 23:11:00,
2013-01-14 18:16:00,60.2,58.8,29.92,SE,146,0.0,0.0,95,0.00,,,1.56,Wunderground v.1.15,2013-01-14 23:16:00,
2013-01-14 18:21:00,60.0,58.9,29.92,SE,133,0.0,0.0,96,0.00,,,1.56,Wunderground v.1.15,2013-01-14 23:21:00,
2013-01-14 18:26:00,59.8,58.9,29.92,ESE,118,0.0,0.0,97,0.00,,,1.56,Wunderground v.1.15,2013-01-14 23:26:00,
2013-01-14 18:32:00,60.5,59.1,29.91,ESE,119,0.0,0.0,95,0.00,,,1.56,Wunderground v.1.15,2013-01-14 23:32:00,
2013-01-14 18:37:00,60.7,59.3,29.91,SE,146,0.0,0.0,95,0.00,,,1.56,Wunderground v.1.15,2013-01-14 23:37:00,
2013-01-14 18:42:00,60.7,59.3,29.91,ESE,117,0.0,0.0,95,0.00,,,1.56,Wunderground v.1.15,2013-01-14 23:42:00,
2013-01-14 18:47:00,60.7,59.0,29.91,SSE,148,0.0,0.0,94,0.00,,,1.56,Wunderground v.1.15,2013-01-14 23:47:00,
2013-01-14 18:53:00,61.3,59.3,29.91,ESE,116,0.0,0.0,93,0.00,,,1.56,Wunderground v.1.15,2013-01-14 23:53:00,
2013-01-14 18:58:00,61.4,59.4,29.91,SSE,155,0.0,0.0,93,0.00,,,1.56,Wunderground v.1.15,2013-01-14 23:58:00,
2013-01-14 19:03:00,61.4,59.7,29.91,SSE,148,0.0,0.0,94,0.00,,,1.56,Wunderground v.1.15,2013-01-15 00:03:00,
2013-01-14 19:09:00,61.3,59.6,29.91,ESE,117,0.0,0.0,94,0.00,,,1.56,Wunderground v.1.15,2013-01-15 00:09:00,
2013-01-14 19:14:00,61.1,59.7,29.90,SE,125,0.0,0.0,95,0.00,,,1.56,Wunderground v.1.15,2013-01-15 00:14:00,
2013-01-14 19:19:00,60.9,59.8,29.90,SE,128,0.0,0.0,96,0.00,,,1.57,Wunderground v.1.15,2013-01-15 00:19:00,
2013-01-14 19:24:00,60.6,59.7,29.90,SE,124,0.0,0.0,97,0.00,,,1.57,Wunderground v.1.15,2013-01-15 00:24:00,
2013-01-14 19:29:00,60.4,59.5,29.90,SE,146,0.0,0.0,97,0.00,,,1.57,Wunderground v.1.15,2013-01-15 00:29:00,
2013-01-14 19:35:00,60.3,59.4,29.90,SE,133,0.0,0.0,97,0.16,,,1.59,Wunderground v.1.15,2013-01-15 00:35:00,
2013-01-14 19:40:00,60.2,59.6,29.90,SE,144,0.0,0.0,98,0.16,,,1.60,Wunderground v.1.15,2013-01-15 00:40:00,
2013-01-14 19:45:00,60.2,59.6,29.91,SE,144,0.0,0.0,98,0.62,,,1.63,Wunderground v.1.15,2013-01-15 00:45:00,
2013-01-14 19:50:00,60.2,59.6,29.91,SE,132,0.0,0.0,98,0.18,,,1.65,Wunderground v.1.15,2013-01-15 00:50:00,
2013-01-14 19:55:00,60.4,59.8,29.91,SSE,161,0.0,0.0,98,0.22,,,1.68,Wunderground v.1.15,2013-01-15 00:55:00,
2013-01-14 20:00:00,60.4,59.8,29.92,SE,134,0.0,0.0,98,0.13,,,1.69,Wunderground v.1.15,2013-01-15 01:00:00,
2013-01-14 20:05:00,60.4,59.8,29.92,NW,311,0.0,0.0,98,0.11,,,1.70,Wunderground v.1.15,2013-01-15 01:05:00,
2013-01-14 20:11:00,60.2,59.6,29.92,NW,311,0.0,0.0,98,0.12,,,1.71,Wunderground v.1.15,2013-01-15 01:11:00,
2013-01-14 20:16:00,60.1,59.5,29.92,NW,304,0.0,0.0,98,0.06,,,1.71,Wunderground v.1.15,2013-01-15 01:16:00,
2013-01-14 20:21:00,59.9,59.3,29.92,NW,304,0.0,0.0,98,0.04,,,1.71,Wunderground v.1.15,2013-01-15 01:21:00,
2013-01-14 20:27:00,59.8,59.2,29.93,NW,319,0.0,0.0,98,0.00,,,1.71,Wunderground v.1.15,2013-01-15 01:27:00,
2013-01-14 20:32:00,59.2,58.3,29.93,NNW,329,0.0,0.0,97,0.00,,,1.71,Wunderground v.1.15,2013-01-15 01:32:00,
2013-01-14 20:37:00,58.1,57.3,29.93,WNW,294,0.0,0.0,97,0.00,,,1.71,Wunderground v.1.15,2013-01-15 01:37:00,
2013-01-14 20:42:00,57.5,56.7,29.93,NW,310,0.0,0.0,97,0.00,,,1.71,Wunderground v.1.15,2013-01-15 01:42:00,
2013-01-14 20:47:00,57.4,56.8,29.93,WNW,302,0.0,0.0,98,0.00,,,1.71,Wunderground v.1.15,2013-01-15 01:47:00,
2013-01-14 20:52:00,57.0,56.4,29.93,WNW,298,0.0,0.0,98,0.00,,,1.71,Wunderground v.1.15,2013-01-15 01:52:00,
2013-01-14 20:57:00,56.8,56.2,29.93,WNW,288,0.0,0.0,98,0.00,,,1.71,Wunderground v.1.15,2013-01-15 01:57:00,
2013-01-14 21:03:00,56.4,55.8,29.93,WNW,295,0.0,0.0,98,0.00,,,1.71,Wunderground v.1.15,2013-01-15 02:03:00,
2013-01-14 21:08:00,55.9,55.1,29.93,WNW,289,0.0,0.0,97,0.00,,,1.71,Wunderground v.1.15,2013-01-15 02:08:00,
2013-01-14 21:13:00,55.5,54.7,29.93,WNW,298,0.0,0.0,97,0.00,,,1.71,Wunderground v.1.15,2013-01-15 02:13:00,
2013-01-14 21:18:00,55.0,54.2,29.93,WNW,288,0.0,0.0,97,0.00,,,1.71,Wunderground v.1.15,2013-01-15 02:18:00,
2013-01-14 21:23:00,54.6,53.8,29.93,WNW,292,0.0,0.0,97,0.00,,,1.71,Wunderground v.1.15,2013-01-15 02:23:00,
2013-01-14 21:28:00,54.4,53.6,29.93,NW,324,0.0,0.0,97,0.00,,,1.71,Wunderground v.1.15,2013-01-15 02:28:00,
2013-01-14 21:34:00,54.3,53.5,29.93,NW,309,0.0,0.0,97,0.00,,,1.71,Wunderground v.1.15,2013-01-15 02:34:00,
2013-01-14 21:39:00,54.1,53.3,29.93,NW,316,0.0,0.0,97,0.00,,,1.71,Wunderground v.1.15,2013-01-15 02:39:00,
2013-01-14 21:44:00,54.0,53.2,29.93,NW,313,0.0,0.0,97,0.00,,,1.71,Wunderground v.1.15,2013-01-15 02:44:00,
2013-01-14 21:50:00,53.9,53.1,29.93,NW,310,0.0,0.0,97,0.00,,,1.71,Wunderground v.1.15,2013-01-15 02:50:00,
2013-01-14 21:55:00,53.7,52.9,29.93,West,279,0.0,0.0,97,0.00,,,1.71,Wunderground v.1.15,2013-01-15 02:55:00,
2013-01-14 22:01:00,53.5,52.7,29.93,NW,312,0.0,0.0,97,0.00,,,1.71,Wunderground v.1.15,2013-01-15 03:01:00,
2013-01-14 22:06:00,53.4,52.6,29.93,NW,312,0.0,0.0,97,0.00,,,1.71,Wunderground v.1.15,2013-01-15 03:06:00,
2013-01-14 22:11:00,53.3,52.8,29.93,WNW,302,0.0,0.0,98,0.00,,,1.71,Wunderground v.1.15,2013-01-15 03:11:00,
2013-01-14 22:16:00,53.3,52.8,29.94,WNW,292,0.0,0.0,98,0.00,,,1.71,Wunderground v.1.15,2013-01-15 03:16:00,
2013-01-14 22:22:00,53.1,52.3,29.94,WNW,289,0.0,0.0,97,0.00,,,1.71,Wunderground v.1.15,2013-01-15 03:22:00,
2013-01-14 22:27:00,53.0,52.2,29.94,WNW,303,0.0,0.0,97,0.00,,,1.71,Wunderground v.1.15,2013-01-15 03:27:00,
2013-01-14 22:32:00,52.9,52.1,29.94,WNW,303,0.0,0.0,97,0.00,,,1.71,Wunderground v.1.15,2013-01-15 03:32:00,
2013-01-14 22:37:00,52.7,51.9,29.94,NW,304,0.0,0.0,97,0.00,,,1.71,Wunderground v.1.15,2013-01-15 03:37:00,
2013-01-14 22:42:00,52.7,51.9,29.94,WNW,294,0.0,0.0,97,0.00,,,1.71,Wunderground v.1.15,2013-01-15 03:42:00,
2013-01-14 22:47:00,52.6,51.8,29.94,WNW,296,0.0,0.0,97,0.00,,,1.71,Wunderground v.1.15,2013-01-15 03:47:00,
2013-01-14 22:52:00,52.4,51.6,29.94,WNW,289,0.0,0.0,97,0.00,,,1.71,Wunderground v.1.15,2013-01-15 03:52:00,
2013-01-14 22:58:00,52.4,51.6,29.94,NW,306,0.0,0.0,97,0.00,,,1.71,Wunderground v.1.15,2013-01-15 03:58:00,
2013-01-14 23:03:00,52.3,51.5,29.94,WNW,300,0.0,0.0,97,0.00,,,1.71,Wunderground v.1.15,2013-01-15 04:03:00,
2013-01-14 23:08:00,52.4,51.6,29.94,WNW,296,0.0,0.0,97,0.00,,,1.71,Wunderground v.1.15,2013-01-15 04:08:00,
2013-01-14 23:13:00,52.4,51.6,29.94,NW,309,0.0,0.0,97,0.00,,,1.71,Wunderground v.1.15,2013-01-15 04:13:00,
2013-01-14 23:18:00,52.5,51.7,29.94,NNW,338,0.0,0.0,97,0.00,,,1.71,Wunderground v.1.15,2013-01-15 04:18:00,
2013-01-14 23:24:00,52.4,51.6,29.94,SE,137,0.0,0.0,97,0.00,,,1.71,Wunderground v.1.15,2013-01-15 04:24:00,
2013-01-14 23:29:00,52.4,51.6,29.94,NW,315,0.0,0.0,97,0.00,,,1.71,Wunderground v.1.15,2013-01-15 04:29:00,
2013-01-14 23:34:00,52.4,51.6,29.94,NW,317,0.0,0.0,97,0.00,,,1.71,Wunderground v.1.15,2013-01-15 04:34:00,
2013-01-14 23:39:00,52.2,51.4,29.94,NW,317,0.0,0.0,97,0.00,,,1.71,Wunderground v.1.15,2013-01-15 04:39:00,
2013-01-14 23:45:00,52.1,51.3,29.93,NW,317,0.0,0.0,97,0.00,,,1.71,Wunderground v.1.15,2013-01-15 04:45:00,
2013-01-14 23:50:00,52.1,51.3,29.93,NW,317,0.0,0.0,97,0.00,,,1.71,Wunderground v.1.15,2013-01-15 04:50:00,
2013-01-14 23:55:00,52.0,51.2,29.93,NW,317,0.0,0.0,97,0.00,,,1.71,Wunderground v.1.15,2013-01-15 04:55:00,